SCP
-0 -0 -0 -0 -0 0 0 0 0 0 0 0 0 0 0 0 0 0 0 0 0 0 0 0 0 0 0 0 0 0 0 0 0 0 0 0 0 0
-0 0 0 -0 -0 -0 0 0 0 0 0 0 0 0 0 0 0 0 0 0 0 0 0 0 0 0 0 0 0 0 0 0 0 0 0 0 0 0
-0 0 0 0 -0 -0 0 0 0 0 0 0 0 0 0 0 0 0 0 0 0 0 0 0 0 0 0 0 0 0 0 0 0 0 0 0 0 0
-0 0 0 0 0 -0 -0 0 0 0 0 0 -0 0 0 0 0 0 0 0 0 0 0 0 0 0 0 0 0 0 0 0 0 0 0 0 0 0
-0 -0 0 0 0 -0 -0 -0 -0 0 0 0 0 0 0 0 0 0 0 0 0 0 0 0 0 0 0 0 0 0 0 0 0 0 0 0 0 0
-0 -0 -0 -0 -0 -0 -0 -0 0 0 0 0 0 0 0 0 0 0 0 0 0 0 0 0 0 0 0 0 0 0 0 0 0 0 0 0 0 0
-0 -0 -0 -0 -0 -0 -0 -0 0 0 0 0 0 0 0 0 0 0 0 0 0 0 0 0 0 0 0 0 0 0 0 0 0 0 0 0 0 0
-0 -0 -0 -0 -0 -0 -0 -0 0 0 0 0 0 0 0 0 0 0 0 0 0 0 0 0 0 0 0 0 0 0 0 0 0 0 0 0 0 0
-0 -0 -0 -0 -0 -0 -0 -0 0 0 0 1 0 0 0 0 0 0 0 0 0 0 0 0 0 0 0 0 0 0 0 0 0 0 0 0 0 0
-0 -0 -0 -0 0 0 0 0 0 0 0 0 1 1 1 0 0 0 0 0 0 0 0 0 0 0 0 0 0 0 0 0 0 0 0 0 0 0
-0 -0 -0 0 0 1 1 1 1 1 1 0 0 0 0 0 0 0 0 0 0 0 0 0 0 0 0 0 0 0 0 0 0 0 -0 0 0 0
0 0 0 0 1 1 1 1 1 2 2 2 2 0 0 0 0 0 0 0 0 0 0 0 0 0 0 0 0 0 0 0 0 0 0 0 0 0
1 1 1 1 0 1 0 2 2 2 3 3 3 3 3 2 1 0 0 0 0 0 0 0 0 0 0 0 0 0 0 0 0 -0 0 0 0 0
1 1 2 1 1 0 0 0 1 1 2 4 4 4 5 4 2 2 0 0 0 0 0 0 0 0 0 0 0 0 0 0 0 -0 0 0 0 0
1 1 1 2 1 0 0 0 0 0 1 2 3 3 4 5 4 1 0 0 0 0 0 0 0 0 0 0 0 0 0 0 0 0 0 0 0 0
0 1 1 1 1 1 0 0 0 0 0 1 2 2 2 1 1 1 0 0 0 0 0 0 0 0 0 0 0 0 0 0 0 0 0 0 0 0
1 1 1 1 1 1 1 0 0 0 0 0 0 0 0 1 0 0 0 0 0 0 0 0 0 0 0 0 0 0 0 0 0 0 0 0 0 0
1 2 2 2 2 2 1 1 0 0 0 0 0 0 0 0 0 0 0 0 0 0 0 0 0 0 0 0 0 0 0 0 0 0 0 0 0 0
2 1 2 2 2 1 1 0 0 0 0 0 0 0 0 0 0 0 0 0 0 0 0 0 0 0 0 0 0 0 0 0 0 0 0 0 0 0
1 1 1 0 0 0 0 0 0 0 0 0 0 0 0 0 0 0 0 0 0 0 0 0 0 0 0 0 0 0 0 0 0 0 0 0 0 0
0 0 0 0 0 0 0 0 0 0 0 0 0 0 0 0 0 0 0 0 0 0 0 0 0 0 0 0 0 0 0 0 0 0 0 0 0 0
0 0 0 0 0 0 0 0 0 0 0 0 0 0 0 0 0 0 0 0 0 0 0 0 0 0 0 0 0 0 0 0 0 0 0 0 0 0
0 0 0 0 0 0 0 0 0 0 0 0 0 0 0 0 0 0 0 0 0 0 0 0 0 0 0 0 0 0 0 0 0 0 0 0 0 0
Wind_Speed_500mb
31 35 39 36 37 39 37 32 31 36 37 32 34 28 28 27 28 35 29 24 24 24 24 25 26 28 27 27 26 26 25 25 24 23 23 21 19 20
38 36 43 43 42 42 42 40 40 41 47 42 38 32 34 37 34 36 36 32 32 31 32 31 31 31 31 31 30 28 27 26 28 28 24 20 18 18
42 46 46 45 50 51 52 50 47 47 51 46 48 45 43 40 44 45 43 42 41 40 40 40 39 38 35 34 32 29 28 26 24 26 23 17 12 18
44 50 55 52 52 53 56 58 57 53 55 57 49 50 53 51 47 48 51 53 53 45 43 46 44 41 40 37 35 34 29 26 25 18 16 17 18 23
51 47 52 58 61 58 60 64 67 65 65 68 69 61 56 57 60 63 60 61 63 58 51 48 51 50 48 45 41 39 35 30 26 24 19 20 23 30
52 49 45 49 57 63 65 67 67 68 73 78 80 79 74 68 71 74 72 69 69 67 64 59 54 53 56 49 44 42 42 37 34 29 27 25 27 35
57 56 55 53 51 52 58 64 67 68 72 76 82 86 87 87 88 84 86 82 78 76 73 69 66 59 56 58 55 53 51 51 46 33 35 29 31 34
68 66 66 66 64 62 62 62 65 68 74 80 84 90 90 91 88 92 95 91 91 89 83 84 84 77 65 62 68 63 56 53 46 32 35 30 30 29
84 81 79 76 73 73 71 73 74 77 77 78 88 89 90 87 86 91 89 94 97 93 76 82 87 92 79 70 74 63 61 58 40 35 36 33 29 24
84 82 80 78 77 74 74 78 79 78 79 79 86 94 94 87 90 89 89 90 90 87 90 88 88 91 84 81 82 71 66 56 41 39 39 34 25 20
76 77 77 76 73 71 74 80 84 85 76 76 78 79 78 78 83 95 104 95 99 106 99 93 93 85 85 81 80 68 54 54 39 43 41 34 23 20
73 75 78 79 75 70 72 75 83 80 75 70 62 61 64 69 72 81 94 103 106 92 98 90 98 92 80 88 83 59 48 40 47 51 44 35 27 22
68 70 70 66 61 56 53 56 59 52 56 67 70 74 73 76 76 74 76 85 95 105 98 88 86 92 82 60 74 65 55 48 58 55 49 40 32 26
64 64 63 58 50 46 48 51 48 48 54 64 68 77 82 82 84 89 78 76 82 80 75 98 96 98 98 77 65 70 60 57 62 57 51 41 37 30
57 57 52 46 48 50 47 46 43 45 60 65 67 70 75 85 78 72 74 67 73 79 83 98 123 121 113 69 52 61 64 64 62 59 50 43 38 28
52 49 47 46 45 52 50 45 46 48 51 56 62 71 75 78 77 73 64 56 55 39 43 43 50 46 39 25 45 61 58 66 64 57 47 43 38 31
39 46 51 50 48 44 37 38 42 48 55 60 65 65 73 71 69 60 46 35 30 17 13 2 8 15 14 38 58 58 57 64 53 48 48 44 38 32
44 49 48 46 42 39 40 43 48 53 53 58 61 65 66 54 35 34 33 23 24 17 9 11 16 38 50 55 51 53 58 59 45 43 42 39 37 31
47 44 46 43 40 40 43 48 50 48 50 52 49 41 26 18 19 23 25 21 23 21 15 16 46 51 57 50 48 41 49 44 43 46 40 36 31 25
40 40 38 39 41 45 48 49 45 39 36 32 26 18 10 17 28 27 6 9 22 18 18 48 40 46 46 51 44 40 36 37 44 42 42 38 31 25
37 38 43 45 44 40 37 34 31 28 26 25 24 18 13 19 15 2 2 5 12 17 37 39 33 33 37 32 28 32 33 30 25 31 37 32 29 28
44 44 38 31 30 30 28 25 22 22 22 21 22 18 15 14 16 9 11 13 16 20 25 29 37 40 40 38 27 24 28 31 35 37 32 25 28 26
35 31 29 28 27 26 22 17 14 12 11 10 13 16 16 17 23 22 20 21 25 24 28 33 39 42 41 38 32 27 25 26 35 43 43 39 35 31
Wind_Direction_500mb
243 236 235 236 235 236 241 250 257 268 272 275 274 270 266 261 262 260 268 269 268 269 271 270 263 262 262 266 274 284 287 287 292 298 302 300 302 313
242 242 234 235 237 239 244 250 255 263 269 268 270 276 274 265 265 264 264 266 266 268 270 274 271 266 265 267 270 274 279 279 287 292 292 287 297 306
244 242 241 241 240 241 244 249 253 259 267 271 266 268 267 266 261 261 260 261 262 263 265 265 268 265 258 255 259 266 271 275 283 291 288 287 299 308
253 248 244 244 246 244 246 251 256 258 264 270 273 275 277 279 270 265 262 260 261 263 267 268 264 258 250 252 260 267 265 267 276 289 287 287 294 311
254 258 253 250 249 249 250 252 255 260 264 270 276 275 275 275 273 271 268 260 260 261 263 266 262 256 255 253 251 255 259 262 270 273 281 285 295 303
251 256 260 258 255 255 255 255 257 260 262 264 269 273 274 272 271 271 269 267 262 261 260 263 263 259 252 250 251 250 251 253 254 264 278 284 289 295
254 256 259 262 264 264 261 261 261 263 264 266 267 270 270 270 268 271 271 272 271 265 263 267 263 257 251 251 249 249 244 251 244 246 262 268 275 293
259 262 263 264 266 268 269 270 270 269 270 270 273 273 276 276 277 273 273 270 270 271 261 267 265 256 248 242 248 243 250 245 252 241 249 253 262 286
260 263 265 266 268 270 272 273 272 270 271 272 273 273 276 277 282 282 277 274 271 274 257 269 272 259 250 249 252 254 250 243 233 239 240 232 253 282
261 263 264 267 269 272 275 275 273 274 273 276 277 281 283 286 283 282 281 280 278 269 261 262 265 261 248 247 249 256 254 241 223 228 220 226 245 274
263 266 268 270 270 271 274 275 278 279 280 281 279 281 283 282 284 284 278 274 268 268 266 258 254 250 241 244 249 257 241 218 214 214 212 219 235 263
267 267 269 271 274 276 278 282 284 289 295 299 294 290 286 283 283 284 282 272 269 266 264 257 254 241 234 244 243 244 227 209 205 203 208 215 231 252
273 274 276 278 279 281 279 279 284 295 293 292 295 293 291 290 290 291 292 289 287 278 278 262 242 231 216 233 229 221 213 202 204 198 203 215 227 246
270 275 277 280 282 279 277 281 287 294 290 288 283 284 288 295 300 304 304 302 300 298 301 273 248 226 219 210 206 207 206 201 199 200 206 216 225 238
268 271 275 274 274 277 277 281 283 283 280 281 287 291 293 296 300 302 305 311 302 302 291 275 260 235 213 202 227 210 193 197 198 202 211 221 229 241
264 265 263 260 261 268 272 274 280 281 283 287 289 289 291 294 298 303 309 312 290 286 307 277 277 202 153 200 213 191 199 194 195 203 213 218 223 227
265 255 257 255 258 259 263 270 276 275 276 278 282 288 295 298 303 304 306 309 274 283 300 233 227 187 177 187 180 189 194 196 198 209 211 213 217 223
249 251 254 254 250 254 260 266 266 269 276 283 286 290 292 301 307 307 301 305 265 251 301 249 214 172 162 171 187 193 189 200 205 207 207 212 216 226
247 251 254 253 256 256 260 264 269 272 273 276 281 288 297 300 309 304 299 281 245 256 275 254 177 177 172 179 177 180 198 207 205 198 205 210 221 238
251 247 247 248 252 258 261 264 267 273 276 277 280 273 245 286 311 307 238 253 246 235 238 187 183 190 193 185 183 192 197 221 208 200 196 205 222 232
247 250 253 254 256 254 252 256 263 265 263 261 266 272 269 283 294 339 267 220 212 180 174 190 191 185 199 193 189 193 194 193 217 210 203 214 227 239
251 253 251 244 241 246 248 247 248 252 256 255 240 233 246 282 230 253 238 196 184 187 189 187 186 192 189 193 193 193 199 212 215 216 225 251 241 245
241 236 232 233 234 230 224 221 229 237 231 231 225 222 239 250 212 213 222 213 205 210 203 198 191 190 194 197 203 211 220 220 219 211 220 226 238 252
Wind_Speed_850mb
31 35 39 36 37 39 37 32 31 36 37 32 34 28 28 27 28 35 29 24 24 24 24 25 26 28 27 27 26 26 25 25 24 23 23 21 19 20
38 36 43 43 42 42 42 40 40 41 47 42 38 32 34 37 34 36 36 32 32 31 32 31 31 31 31 31 30 28 27 26 28 28 24 20 18 18
42 46 46 45 50 51 52 50 47 47 51 46 48 45 43 40 44 45 43 42 41 40 40 40 39 38 35 34 32 29 28 26 24 26 23 17 12 18
44 50 55 52 52 53 56 58 57 53 55 57 49 50 53 51 47 48 51 53 53 45 43 46 44 41 40 37 35 34 29 26 25 18 16 17 18 23
51 47 52 58 61 58 60 64 67 65 65 68 69 61 56 57 60 63 60 61 63 58 51 48 51 50 48 45 41 39 35 30 26 24 19 20 23 30
52 49 45 49 57 63 65 67 67 68 73 78 80 79 74 68 71 74 72 69 69 67 64 59 54 53 56 49 44 42 42 37 34 29 27 25 27 35
57 56 55 53 51 52 58 64 67 68 72 76 82 86 87 87 88 84 86 82 78 76 73 69 66 59 56 58 55 53 51 51 46 33 35 29 31 34
68 66 66 66 64 62 62 62 65 68 74 80 84 90 90 91 88 92 95 91 91 89 83 84 84 77 65 62 68 63 56 53 46 32 35 30 30 29
84 81 79 76 73 73 71 73 74 77 77 78 88 89 90 87 86 91 89 94 97 93 76 82 87 92 79 70 74 63 61 58 40 35 36 33 29 24
84 82 80 78 77 74 74 78 79 78 79 79 86 94 94 87 90 89 89 90 90 87 90 88 88 91 84 81 82 71 66 56 41 39 39 34 25 20
76 77 77 76 73 71 74 80 84 85 76 76 78 79 78 78 83 95 104 95 99 106 99 93 93 85 85 81 80 68 54 54 39 43 41 34 23 20
73 75 78 79 75 70 72 75 83 80 75 70 62 61 64 69 72 81 94 103 106 92 98 90 98 92 80 88 83 59 48 40 47 51 44 35 27 22
68 70 70 66 61 56 53 56 59 52 56 67 70 74 73 76 76 74 76 85 95 105 98 88 86 92 82 60 74 65 55 48 58 55 49 40 32 26
64 64 63 58 50 46 48 51 48 48 54 64 68 77 82 82 84 89 78 76 82 80 75 98 96 98 98 77 65 70 60 57 62 57 51 41 37 30
57 57 52 46 48 50 47 46 43 45 60 65 67 70 75 85 78 72 74 67 73 79 83 98 123 121 113 69 52 61 64 64 62 59 50 43 38 28
52 49 47 46 45 52 50 45 46 48 51 56 62 71 75 78 77 73 64 56 55 39 43 43 50 46 39 25 45 61 58 66 64 57 47 43 38 31
39 46 51 50 48 44 37 38 42 48 55 60 65 65 73 71 69 60 46 35 30 17 13 2 8 15 14 38 58 58 57 64 53 48 48 44 38 32
44 49 48 46 42 39 40 43 48 53 53 58 61 65 66 54 35 34 33 23 24 17 9 11 16 38 50 55 51 53 58 59 45 43 42 39 37 31
47 44 46 43 40 40 43 48 50 48 50 52 49 41 26 18 19 23 25 21 23 21 15 16 46 51 57 50 48 41 49 44 43 46 40 36 31 25
40 40 38 39 41 45 48 49 45 39 36 32 26 18 10 17 28 27 6 9 22 18 18 48 40 46 46 51 44 40 36 37 44 42 42 38 31 25
37 38 43 45 44 40 37 34 31 28 26 25 24 18 13 19 15 2 2 5 12 17 37 39 33 33 37 32 28 32 33 30 25 31 37 32 29 28
44 44 38 31 30 30 28 25 22 22 22 21 22 18 15 14 16 9 11 13 16 20 25 29 37 40 40 38 27 24 28 31 35 37 32 25 28 26
35 31 29 28 27 26 22 17 14 12 11 10 13 16 16 17 23 22 20 21 25 24 28 33 39 42 41 38 32 27 25 26 35 43 43 39 35 31
Wind_Direction_850mb
243 236 235 236 235 236 241 250 257 268 272 275 274 270 266 261 262 260 268 269 268 269 271 270 263 262 262 266 274 284 287 287 292 298 302 300 302 313
242 242 234 235 237 239 244 250 255 263 269 268 270 276 274 265 265 264 264 266 266 268 270 274 271 266 265 267 270 274 279 279 287 292 292 287 297 306
244 242 241 241 240 241 244 249 253 259 267 271 266 268 267 266 261 261 260 261 262 263 265 265 268 265 258 255 259 266 271 275 283 291 288 287 299 308
253 248 244 244 246 244 246 251 256 258 264 270 273 275 277 279 270 265 262 260 261 263 267 268 264 258 250 252 260 267 265 267 276 289 287 287 294 311
254 258 253 250 249 249 250 252 255 260 264 270 276 275 275 275 273 271 268 260 260 261 263 266 262 256 255 253 251 255 259 262 270 273 281 285 295 303
251 256 260 258 255 255 255 255 257 260 262 264 269 273 274 272 271 271 269 267 262 261 260 263 263 259 252 250 251 250 251 253 254 264 278 284 289 295
254 256 259 262 264 264 261 261 261 263 264 266 267 270 270 270 268 271 271 272 271 265 263 267 263 257 251 251 249 249 244 251 244 246 262 268 275 293
259 262 263 264 266 268 269 270 270 269 270 270 273 273 276 276 277 273 273 270 270 271 261 267 265 256 248 242 248 243 250 245 252 241 249 253 262 286
260 263 265 266 268 270 272 273 272 270 271 272 273 273 276 277 282 282 277 274 271 274 257 269 272 259 250 249 252 254 250 243 233 239 240 232 253 282
261 263 264 267 269 272 275 275 273 274 273 276 277 281 283 286 283 282 281 280 278 269 261 262 265 261 248 247 249 256 254 241 223 228 220 226 245 274
263 266 268 270 270 271 274 275 278 279 280 281 279 281 283 282 284 284 278 274 268 268 266 258 254 250 241 244 249 257 241 218 214 214 212 219 235 263
267 267 269 271 274 276 278 282 284 289 295 299 294 290 286 283 283 284 282 272 269 266 264 257 254 241 234 244 243 244 227 209 205 203 208 215 231 252
273 274 276 278 279 281 279 279 284 295 293 292 295 293 291 290 290 291 292 289 287 278 278 262 242 231 216 233 229 221 213 202 204 198 203 215 227 246
270 275 277 280 282 279 277 281 287 294 290 288 283 284 288 295 300 304 304 302 300 298 301 273 248 226 219 210 206 207 206 201 199 200 206 216 225 238
268 271 275 274 274 277 277 281 283 283 280 281 287 291 293 296 300 302 305 311 302 302 291 275 260 235 213 202 227 210 193 197 198 202 211 221 229 241
264 265 263 260 261 268 272 274 280 281 283 287 289 289 291 294 298 303 309 312 290 286 307 277 277 202 153 200 213 191 199 194 195 203 213 218 223 227
265 255 257 255 258 259 263 270 276 275 276 278 282 288 295 298 303 304 306 309 274 283 300 233 227 187 177 187 180 189 194 196 198 209 211 213 217 223
249 251 254 254 250 254 260 266 266 269 276 283 286 290 292 301 307 307 301 305 265 251 301 249 214 172 162 171 187 193 189 200 205 207 207 212 216 226
247 251 254 253 256 256 260 264 269 272 273 276 281 288 297 300 309 304 299 281 245 256 275 254 177 177 172 179 177 180 198 207 205 198 205 210 221 238
251 247 247 248 252 258 261 264 267 273 276 277 280 273 245 286 311 307 238 253 246 235 238 187 183 190 193 185 183 192 197 221 208 200 196 205 222 232
247 250 253 254 256 254 252 256 263 265 263 261 266 272 269 283 294 339 267 220 212 180 174 190 191 185 199 193 189 193 194 193 217 210 203 214 227 239
251 253 251 244 241 246 248 247 248 252 256 255 240 233 246 282 230 253 238 196 184 187 189 187 186 192 189 193 193 193 199 212 215 216 225 251 241 245
241 236 232 233 234 230 224 221 229 237 231 231 225 222 239 250 212 213 222 213 205 210 203 198 191 190 194 197 203 211 220 220 219 211 220 226 238 252